www.pogodaiklimat.ru

Погода и климат >> Архив погоды >> Индия >> Орисса >> Чандбали


ПОГОДА в Чандбали

  • Прогноз погоды в Чандбали
  • Монитор погоды в Чандбали

АРХИВ ПОГОДЫ в Чандбали

Время (UTC), дата Ветер
(напр.,м/с)
 
Видим.   Явления Облачность Т
(С)
Тd
(С)
f
(%)
Тe
(С)
Тes
(С)
Комфортность P
(гПа)
Po
(гПа)
Тmin
(С)
Tmax
(С)
R
(мм)
R24
(мм)
S
(см)
00 13.05 Ю 1 4000 м 3/1 600 м
[Sc Ac trans]
+29.0 +27.6 92 +47 +47 опасность
перегрева
1004.4 1003.7
03 13.05 Ю 1 4000 м 3/1 600 м
[Sc Ac trans]
+32.2 +25.5 68 +47 +57 опасность
перегрева
1006.3 1005.6 +28.3
06 13.05 Ю 1 4000 м 4/3 600 м
[Sc Ac trans]
+37.2 +26.2 54 +53 +70 опасность
перегрева
1006.2 1005.5
09 13.05 Ю 1 4000 м ясно +39.0 +25.7 47 +53 +69 опасность
перегрева
1003.4 1002.7
12 13.05 Ю 4 4000 м ясно +34.0 +27.7 70 +54 +55 опасность
перегрева
1002.5 1001.8 +39.2
15 13.05 Ю 3 4000 м 6/3 600 м
[Sc Ac trans]
+30.4 +27.7 86 +50 +50 опасность
перегрева
1004.3 1003.6
18 13.05 Ю 2 4000 м 5/3 600 м
[Sc Ac trans]
+30.0 +27.5 86 +48 +48 опасность
перегрева
1005.2 1004.5
21 13.05 Ю 1 4000 м 4/1 600 м
[Sc Ac trans]
+29.2 +27.5 91 +47 +47 опасность
перегрева
1004.4 1003.7
00 14.05 Ю 1 4000 м 4/3 600 м
[Sc Ac trans]
+29.0 +27.6 92 +47 +47 опасность
перегрева
1005.0 1004.3
03 14.05 Ю 1 4000 м 4/4 600 м
[Sc]
+32.6 +27.1 73 +51 +59 опасность
перегрева
1006.8 1006.1 +28.6
06 14.05 Ю 2 4000 м 1/1 600 м
[Sc]
+37.0 +25.0 50 +50 +71 опасность
перегрева
1006.1 1005.4
09 14.05 Ю 1 4000 м 1/1 600 м
[Sc]
+38.6 +25.2 47 +52 +67 опасность
перегрева
1003.2 1002.5
12 14.05 СВ 2 4000 м 5/4 600 м
[Sc Ci fib]
+30.6 +23.0 64 +41 +41 опасность
перегрева
1004.0 1003.3 +39.0
15 14.05 Ю 2 4000 м 4/4 600 м
[Sc]
+30.8 +27.7 84 +50 +50 опасность
перегрева
1005.4 1004.7
18 14.05 Ю 2 4000 м 3/3 600 м
[Sc]
+30.0 +27.5 86 +48 +48 опасность
перегрева
1006.2 1005.5
21 14.05 штиль 0 4000 м 3/3 600 м
[Sc]
+29.4 +27.5 90 +48 +48 опасность
перегрева
1005.0 1004.3
00 15.05 Ю 1 4000 м мгла 3/3 600 м
[Sc]
+29.0 +27.3 91 +47 +47 опасность
перегрева
1005.8 1005.1
03 15.05 Ю 1 4000 м 4/4 600 м
[Sc]
+32.6 +27.4 74 +51 +60 опасность
перегрева
1007.8 1007.1 +28.2
06 15.05 Ю 1 4000 м 3/3 600 м
[Sc]
+37.2 +25.8 52 +52 +70 опасность
перегрева
1007.0 1006.3
09 15.05 Ю 3 4000 м ясно +38.0 +28.6 59 +60 +72 опасность
перегрева
1004.4 1003.7
12 15.05 Ю 2 4000 м 6/5 600 м
[Sc diur, vesp Ac trans]
+34.0 +27.4 69 +53 +54 опасность
перегрева
1004.8 1004.1 +39.8
15 15.05 Ю 1 4000 м в посл. час гроза {дождь} 5/4 600 м
[Sc Ac trans]
+26.0 +22.4 81 +34 +34 очень
душно
1007.0 1006.3 2
18 15.05 Ю 1 4000 м мгла {дождь} 5/4 600 м
[Sc Ac trans]
+25.4 +21.4 79 +32 +32 очень
душно
1006.0 1005.3 2
21 15.05 штиль 0 4000 м мгла 5/4 600 м
[Sc Ac trans]
+25.0 +21.7 82 +32 +32 очень
душно
1005.0 1004.3 2
00 16.05 штиль 0 4000 м мгла 4/3 600 м
[Sc Ac trans]
+25.0 +23.2 90 +33 +34 очень
душно
1006.8 1006.1 2
03 16.05 Ю 1 4000 м мгла ясно +30.2 +24.8 73 +43 +56 опасность
перегрева
1008.4 1007.7 +23.2 2
06 16.05 Ю 1 4000 м ясно +36.4 +24.4 50 +48 +74 опасность
перегрева
1007.6 1006.9
09 16.05 З 1 4000 м ясно +38.2 +25.4 48 +52 +69 опасность
перегрева
1005.3 1004.6
12 16.05 Ю 2 4000 м ясно +36.0 +24.1 50 +47 +48 опасность
перегрева
1004.4 1003.7 +39.0
15 16.05 Ю 2 4000 м ясно +31.2 +27.6 81 +50 +50 опасность
перегрева
1006.5 1005.8
18 16.05 Ю 2 4000 м ясно +30.0 +27.2 85 +48 +48 опасность
перегрева
1007.0 1006.3
21 16.05 Ю 1 4000 м ясно +29.4 +26.9 86 +46 +46 опасность
перегрева
1006.0 1005.3
00 17.05 Ю 1 4000 м мгла 3/0
[Ac trans]
+29.0 +27.3 91 +47 +47 опасность
перегрева
1005.9 1005.2
03 17.05 Ю 1 4000 м мгла ясно +32.2 +28.1 79 +53 +66 опасность
перегрева
1006.6 1005.9 +27.8
06 17.05 Ю 1 4000 м ясно +36.8 +28.7 63 +59 +85 опасность
перегрева
1006.8 1006.1
09 17.05 Ю 1 4000 м ясно +39.0 +27.0 51 +56 +72 опасность
перегрева
1003.9 1003.2
12 17.05 Ю 1 4000 м ясно +32.8 +25.5 66 +48 +48 опасность
перегрева
1002.8 1002.1 +39.4
15 17.05 Ю 2 4000 м ясно +31.4 +27.6 80 +50 +50 опасность
перегрева
1004.8 1004.1
18 17.05 Ю 1 4000 м ясно +29.8 +27.6 88 +48 +48 опасность
перегрева
1005.2 1004.5
21 17.05 Ю 1 4000 м ясно +29.2 +27.5 91 +47 +47 опасность
перегрева
1004.6 1003.9
00 18.05 штиль 0 4000 м мгла 3/0
[Ci fib]
+29.0 +27.3 91 +47 +47 опасность
перегрева
1003.9 1003.2
03 18.05 ЮЗ 2 4000 м мгла ясно +32.6 +27.1 73 +51 +63 опасность
перегрева
1005.8 1005.1 +28.0
06 18.05 Ю 1 4000 м ясно +38.0 +28.3 58 +59 +87 опасность
перегрева
1005.2 1004.5
09 18.05 Ю 2 4000 м ясно +39.2 +29.3 58 +63 +76 опасность
перегрева
1002.4 1001.7
12 18.05 Ю 2 4000 м ясно +35.6 +28.9 68 +58 +59 опасность
перегрева
1002.7 1002.0 +40.5
15 18.05 Ю 3 4000 м ясно +31.6 +28.3 83 +53 +53 опасность
перегрева
1004.4 1003.7
18 18.05 Ю 2 4000 м 6/5 600 м
[Sc Ci fib]
+30.2 +27.7 87 +49 +49 опасность
перегрева
1004.9 1004.2
21 18.05 Ю 1 4000 м 4/3 600 м
[Sc Ci fib]
+29.6 +27.7 90 +48 +48 опасность
перегрева
1004.4 1003.7
00 19.05 Ю 1 4000 м 5/4 600 м
[Sc Ac trans]
+29.4 +27.5 90 +48 +48 опасность
перегрева
1004.8 1004.1
03 19.05 Ю 1 4000 м 6/4 600 м
[Sc Ac trans Ci fib]
+32.8 +28.2 77 +54 +61 опасность
перегрева
1007.1 1006.4 +28.8
06 19.05 ЮЗ 1 4000 м 3/3 600 м
[Sc]
+37.0 +28.7 63 +60 +79 опасность
перегрева
1006.6 1005.9
09 19.05 Ю 2 4000 м 3/3 600 м
[Sc diur, vesp]
+37.4 +28.8 62 +60 +70 опасность
перегрева
1005.2 1004.5
12 19.05 Ю 2 4000 м ясно +34.0 +28.3 72 +55 +56 опасность
перегрева
1005.0 1004.3 +39.2
15 19.05 Ю 2 4000 м ясно +31.2 +28.2 84 +52 +52 опасность
перегрева
1007.0 1006.3
18 19.05 Ю 1 4000 м 8/5 600 м
[Sc Ac trans]
+30.2 +27.7 87 +49 +49 опасность
перегрева
1008.2 1007.5

 

Местоположение метеостанции Чандбали (Орисса, Индия): широта 20.78 долгота 86.73 высота над уровнем моря 6 м.

В архиве по умолчанию представлена погода в Чандбали за последнюю неделю. Архивные данные за месяц целиком и за предыдущие месяцы, начиная с января 2011 года, Вы можете получить, выбрав интересующий диапазон дат из раскрывающегося списка и нажав кнопку "Ввод!".


*Определитесь, кто Вы:
робот инопланетянин человек

Внимание! Время в таблицах - всемирное. Для получения местного времени необходимо прибавить поправку, которая равна 5.5 ч.

Смотрите также архив погоды в соседних городах и на ближайших метеорологических станциях:

Погода в Парадипе (Орисса, Индия) (54 км)
Погода в Баласоре (Орисса, Индия) (85 км)
Погода в Каттаке (Орисса, Индия) (90 км)
Погода в Бхубанешваре (Орисса, Индия) (111 км)
Погода в Диге (Западная Бенгалия, Индия) (123 км)
Погода в Барипаде (Орисса, Индия) (128 км)
Погода в Пури (Орисса, Индия) (145 км)
Погода в Контае (Западная Бенгалия, Индия) (153 км)
Погода в Кендуджхаре (Орисса, Индия) (156 км)
Погода в Ангуле (Орисса, Индия) (170 км)

Пояснения к столбцам:

Ветер - указаны скорость ветра в м/с - средняя за 10 мин, порывы в срок и между сроками (в фигурных скобках) и направление, откуда дует ветер: С - северный, СВ - северо-восточный, В - восточный, ЮВ - юго-восточный, Ю - южный, ЮЗ - юго-западный, З - западный, СЗ - северо-западный.
Видимость - горизонтальная дальность видимости в метрах или километрах. При видимости от 1 до 10 км при отсутствии осадков обычно наблюдается дымка, при ухудшении видимости до 1 км и менее - туман. В сухую погоду видимость может ухудшаться дымом, пылью или мглою.
Явления - указаны атмосферные явления, наблюдавшиеся в срок или в последний час перед сроком; фигурными скобками обозначены явления, наблюдавшиеся между сроками (за 1-3 часа до срока); квадратными скобками обозначены град или гололедные отложения с указанием их диаметра в мм.
Облачность - указаны через наклонную черту общая и нижняя облачность в баллах и высота нижней границы облаков в метрах; квадратными скобками обозначены формы облаков: Ci - перистые, Cs - перисто-слоистые, Cc - перисто-кучевые, Ac - высококучевые, As - высокослоистые, Sc - слоисто-кучевые, Ns - слоисто-дождевые, Cu - кучевые, Cb - кучево-дождевые. Подробнее классификацию облаков см. в Атласе облаков (PDF).
T - Температура воздуха - температура, измеренная на высоте 2 м над землей.
Td - Температура точки росы - температура, при понижении до которой содержащийся в воздухе водяной пар достигнет насыщения.
f - Относительная влажность воздуха - влажноcть воздуха, измеренная на высоте 2 м над землей.
Te - Эффективная температура - температура, которую ощущает одетый по сезону человек в тени. Характеристика душности погоды. При расчете учитывается влияние влажности воздуха и скорости ветра на теплоощущения человека.
Tes - Эффективная температура на солнце - температура, которую ощущает человек, с поправкой на солнечный нагрев. Характеристика знойности погоды. Зависит от высоты солнца над горизонтом, облачности и скорости ветра. Ночью, в пасмурную погоду, а также при ветре 12 м/с и более поправка равна нулю.
P - Атмосферное давление - приведенное к уровню моря атмосферное давление.
Po - Атмосферное давление - измеренное на уровне метеостанции атмосферное давление.
Tmin - Минимальная температура - минимум температуры воздуха на высоте 2 м над землей.
Tmax - Максимальная температура - максимум температуры воздуха на высоте 2 м над землей.
R - Количество осадков - Количество выпавших осадков за период времени, мм. При наведении курсора мыши на число - период времени, за который выпало указанное количество осадков.
R24 - Количество осадков - Количество выпавших осадков за 24 часа, мм.
S - Снежный покров - Высота снежного покрова, см. При наведении курсора мыши на число - состояние снежного покрова и степень покрытия местности в баллах.